SCP
2 2 2 2 1 1 1 1 1 1 0 0 0 0 0 0 0 0 0 0 0 0 0 0 0 0 0 0 0 0 0 0 0 0 0 0 0 0 0 0 0 0 0
2 2 2 2 1 1 1 1 1 1 0 0 0 0 0 0 0 0 0 0 0 0 0 0 0 0 0 0 0 0 0 0 0 0 0 0 0 0 0 0 0 0 0
2 2 2 2 2 1 1 1 1 1 0 0 0 0 0 0 0 0 0 0 0 0 0 0 0 0 0 0 0 0 0 0 0 0 0 0 0 0 0 0 0 0 0
2 2 2 2 2 1 1 1 1 1 0 0 0 0 0 0 0 0 0 0 0 0 0 0 0 0 0 0 0 0 0 0 0 0 0 0 0 0 0 0 0 0 0
2 2 2 1 1 1 1 1 1 1 1 0 0 0 0 0 0 0 0 0 0 0 0 0 0 0 0 0 0 0 0 0 0 0 0 0 0 0 0 0 0 0 0
2 1 1 1 1 1 1 1 1 1 1 0 0 0 0 0 0 0 0 0 0 0 0 0 0 0 0 0 0 0 0 0 0 0 0 0 0 0 0 0 0 0 0
2 1 1 1 1 1 1 1 1 1 1 0 0 0 0 0 0 0 0 0 0 0 0 0 0 0 0 0 0 0 0 0 0 0 0 0 0 0 0 0 0 0 0
1 1 1 1 1 1 1 1 1 1 1 0 0 0 0 0 0 0 0 0 0 0 0 0 0 0 0 0 0 0 0 0 0 0 0 0 0 0 0 0 0 0 0
1 1 1 1 1 1 1 1 1 1 1 1 0 0 0 0 0 0 0 0 0 0 0 0 0 0 0 0 0 0 0 0 0 0 0 0 0 0 0 0 0 0 0
1 1 1 1 1 1 1 1 1 1 1 1 0 0 0 0 0 0 0 0 0 0 0 0 0 0 0 0 0 0 0 0 0 0 0 0 0 0 0 0 0 0 0
1 1 1 1 1 1 1 1 1 1 1 1 0 0 0 0 0 0 0 0 0 0 0 0 0 0 0 0 0 0 0 0 0 0 0 0 0 0 0 0 0 0 0
1 1 1 1 1 1 1 1 1 1 1 0 0 0 0 0 0 0 0 0 0 0 0 0 0 0 0 0 0 0 0 0 0 0 0 0 0 0 0 0 0 0 0
1 1 1 1 1 1 1 1 1 1 1 0 0 0 0 0 0 0 0 0 0 0 0 0 0 0 0 0 0 0 0 0 0 0 0 0 0 0 0 0 0 0 0
1 1 1 1 1 1 1 1 1 1 1 0 0 0 0 0 0 0 0 0 0 0 0 0 0 0 0 0 0 0 0 0 0 0 0 0 0 0 0 0 0 0 0
1 1 1 1 1 1 1 1 1 1 1 0 0 0 0 0 0 0 0 0 0 0 0 0 0 0 0 0 0 0 0 0 0 0 0 0 0 0 0 0 0 0 0
2 2 2 2 2 1 1 1 1 1 1 0 0 0 0 0 0 0 0 0 0 0 0 0 0 0 0 0 0 0 0 0 0 0 0 0 0 0 0 0 0 0 0
2 2 2 2 2 2 2 1 1 1 1 0 0 0 0 0 0 0 0 0 0 0 0 0 0 0 0 0 0 0 0 0 0 0 0 0 0 0 0 0 0 0 0
2 2 2 2 2 2 2 1 1 1 1 0 0 0 0 0 0 0 0 0 0 0 0 0 0 0 0 0 0 0 0 0 0 0 0 0 0 0 0 0 0 0 0
2 3 3 3 3 2 2 1 1 1 1 0 0 0 0 0 0 0 0 0 0 0 0 0 0 0 0 0 0 0 0 0 0 0 0 0 0 0 0 0 0 0 0
3 3 3 3 3 2 2 1 1 1 0 0 0 0 0 0 0 0 0 0 0 0 0 0 0 0 0 0 0 0 0 0 0 0 0 0 0 0 0 0 0 0 0
3 3 3 3 3 2 2 1 1 1 0 0 0 0 0 0 0 0 0 0 0 0 0 0 0 0 0 0 0 0 0 0 0 0 0 0 0 0 0 0 0 0 0
3 3 3 3 3 2 2 1 1 1 0 0 0 0 0 0 0 0 0 0 0 0 0 0 0 0 0 0 0 0 0 0 0 0 0 0 0 0 0 0 0 0 0
4 3 3 3 2 2 2 1 1 1 1 0 0 0 0 0 0 0 0 0 0 0 0 0 0 0 0 0 0 0 0 0 0 0 0 0 0 0 0 0 0 0 0
3 3 3 2 2 2 1 1 1 1 1 0 0 0 0 0 0 0 0 0 0 0 0 0 0 0 0 0 0 0 0 0 0 0 0 0 0 0 0 0 0 0 0
2 2 2 2 2 1 1 1 1 1 1 0 0 0 0 0 0 0 0 0 0 0 0 0 0 0 0 0 0 0 0 0 0 0 0 0 0 0 0 0 0 0 0
1 1 1 1 1 1 1 1 1 1 1 0 0 0 0 0 0 0 0 0 0 0 0 0 0 0 0 0 0 0 0 0 0 0 0 0 0 0 0 0 0 0 0
Wind_Speed
6 8 9 11 10 9 9 9 9 8 6 3 3 3 2 2 2 2 4 5 5 5 4 3 3 3 3 3 3 2 2 1 1 1 1 2 1 1 2 3 3 4 5
7 8 9 9 10 10 9 9 9 8 7 5 4 3 3 2 2 2 3 4 5 5 4 4 3 3 3 3 3 3 2 1 2 2 1 2 3 2 1 2 3 4 3
12 11 11 10 10 10 10 9 9 8 7 6 4 2 1 1 1 2 2 3 4 5 4 4 4 4 4 3 3 3 4 2 1 2 4 3 3 2 2 1 1 2 2
10 10 10 9 10 9 9 8 8 8 7 7 5 6 4 3 3 3 3 3 4 4 4 4 4 4 3 4 4 4 3 3 2 2 2 3 4 3 1 2 1 0 1
10 10 10 10 9 9 8 7 7 7 7 6 7 6 4 3 2 2 3 3 3 4 4 4 4 4 3 4 4 3 3 3 4 3 2 2 1 2 2 1 1 1 1
9 7 6 6 6 7 7 7 7 7 7 7 6 6 6 4 3 3 3 3 2 2 3 4 4 4 3 4 4 4 4 4 4 3 3 3 2 3 3 3 2 1 1
9 9 9 9 8 9 8 8 8 7 7 7 6 6 6 5 5 5 4 3 2 2 4 4 3 3 4 4 3 3 3 3 3 4 3 3 3 3 3 3 2 2 1
9 10 11 10 9 10 9 9 8 7 7 7 6 5 5 4 3 4 4 4 3 3 3 3 3 3 3 3 3 2 3 2 3 3 3 2 3 3 3 4 4 2 0
11 10 10 9 9 9 9 9 9 7 7 7 6 5 5 4 4 4 3 3 2 2 2 2 2 2 2 2 3 2 2 2 2 2 2 2 2 2 3 3 4 4 3
9 9 9 9 8 8 7 8 8 8 7 6 6 5 4 4 4 3 3 3 3 2 2 2 2 2 2 2 2 2 2 2 2 2 2 2 2 1 2 3 3 3 4
11 10 9 8 8 7 7 7 7 6 6 6 5 4 4 4 4 3 3 3 2 2 2 2 2 2 2 2 2 2 2 2 1 1 1 2 2 1 2 2 2 3 3
10 10 10 9 8 8 7 7 7 7 6 6 5 5 4 4 4 3 3 3 2 2 2 2 2 1 1 1 2 1 1 1 1 1 1 1 1 1 1 1 2 2 3
8 8 8 9 9 8 8 7 7 7 6 6 6 5 4 4 4 3 3 3 3 2 2 2 2 1 1 1 1 1 1 1 1 1 1 1 2 1 1 1 2 2 3
9 9 9 9 9 8 8 8 7 7 7 6 6 5 4 4 4 3 4 3 3 3 2 2 2 2 2 2 1 2 2 2 1 0 1 1 2 2 2 2 2 3 4
10 10 10 8 9 8 8 8 7 7 7 7 6 5 4 4 4 4 4 4 3 3 3 3 3 2 2 1 1 2 3 2 2 2 1 1 2 2 2 2 3 4 4
11 10 10 10 10 10 9 8 7 7 7 7 6 5 5 4 4 4 4 4 4 4 4 4 3 3 2 3 4 4 3 3 3 2 2 3 4 5 6 5 5 5 5
13 13 12 11 11 10 10 9 8 8 8 7 6 6 5 5 4 4 4 4 4 4 4 3 3 3 2 4 4 5 4 4 3 3 3 3 4 5 5 7 8 6 5
12 12 11 10 9 8 8 8 8 8 7 7 6 6 5 5 4 5 5 4 3 4 3 3 3 3 3 4 5 7 5 5 4 3 3 3 3 4 5 6 6 6 5
11 9 10 10 10 10 10 10 8 7 7 7 6 6 6 6 5 5 5 4 4 3 3 3 3 3 3 4 5 6 4 4 4 3 4 3 3 5 6 7 6 6 4
8 9 9 9 10 9 10 10 9 8 7 7 6 6 6 6 6 5 4 3 4 3 3 3 3 3 2 3 5 5 4 4 3 3 4 5 5 5 6 5 6 5 3
8 10 11 10 9 9 10 9 8 7 6 6 6 6 6 6 6 5 4 4 4 4 3 3 2 2 2 3 4 5 3 4 4 3 2 2 4 5 5 5 4 5 4
7 9 9 8 7 8 10 9 7 6 6 7 6 6 6 6 5 5 4 4 5 5 4 3 3 2 2 3 3 5 5 4 4 3 2 2 5 6 6 4 5 7 6
7 7 9 8 6 6 8 8 6 7 7 7 7 6 6 5 5 5 5 4 4 4 3 3 3 2 2 2 5 6 6 6 4 3 5 5 6 5 4 5 5 4 3
6 6 8 8 6 5 6 6 6 7 8 8 7 6 6 5 4 3 3 4 3 3 3 3 3 2 2 1 2 2 3 5 5 3 4 5 5 4 3 3 2 2 2
5 6 8 8 7 6 6 6 6 7 7 7 6 6 5 6 5 4 2 2 2 2 4 4 4 4 4 4 5 4 3 3 3 4 3 2 2 2 2 2 1 1 2
5 6 6 6 6 6 6 4 5 7 8 6 6 5 5 5 5 5 4 6 3 3 2 3 4 3 4 8 8 6 6 7 7 5 3 2 2 2 1 1 1 1 1
Wind_Direction
178 160 158 157 156 159 160 162 162 168 156 148 145 141 168 178 177 182 184 175 172 174 174 178 175 170 164 180 176 162 170 205 159 88 352 331 318 222 206 202 192 200 202
168 165 160 162 164 166 167 163 167 170 169 168 160 161 168 179 181 178 187 187 178 182 181 175 180 180 172 183 184 167 160 215 165 141 118 341 337 331 247 198 194 206 202
177 172 168 169 166 170 173 172 170 170 173 167 147 139 110 95 136 181 198 206 195 193 191 184 180 184 180 190 196 179 171 195 219 170 154 163 222 286 318 273 211 182 182
173 172 172 171 173 177 172 166 166 168 171 166 162 169 175 185 194 186 194 210 207 199 197 191 186 185 186 193 202 189 180 173 203 219 198 182 167 167 272 335 348 190 179
174 177 178 175 173 172 168 168 162 167 170 171 171 176 183 184 174 168 188 208 217 206 201 193 192 194 196 201 204 193 192 187 191 197 198 194 182 167 162 227 310 353 335
172 170 169 157 162 164 164 165 165 170 172 172 173 179 181 179 174 183 193 205 212 212 209 201 194 193 199 206 204 201 198 201 196 195 187 177 176 188 177 193 210 224 297
161 162 165 166 173 169 168 169 170 172 173 173 179 182 182 181 189 191 193 192 198 210 219 210 192 195 208 207 197 195 201 200 199 201 201 197 197 180 171 169 185 198 227
167 171 174 173 176 174 171 169 173 175 174 176 181 180 181 184 193 195 191 191 198 208 208 195 192 197 199 201 191 192 200 198 210 215 208 206 208 185 178 172 160 164 231
172 173 173 171 173 173 173 171 172 173 175 177 177 182 182 185 191 192 188 186 191 196 193 187 195 203 196 195 183 194 210 191 206 212 208 213 220 192 188 178 167 165 189
167 165 168 172 172 170 169 166 170 173 175 179 183 183 183 181 176 167 173 179 189 190 179 184 191 195 191 186 183 204 207 182 213 215 199 207 219 202 182 182 184 175 174
169 166 169 171 165 159 159 162 166 167 170 174 171 167 168 167 162 168 177 178 177 171 174 185 183 184 200 196 187 202 193 190 220 243 204 219 201 201 202 186 184 178 161
169 168 165 159 159 160 160 162 164 164 166 162 155 159 158 154 158 166 169 163 158 158 166 164 158 170 183 180 176 186 182 169 210 236 207 230 193 188 199 179 180 178 165
163 161 159 160 163 162 159 160 160 158 153 148 147 148 152 153 160 164 154 148 142 134 124 125 132 116 99 117 132 143 144 147 186 197 191 207 167 185 193 173 163 159 144
164 164 165 165 161 158 159 158 157 153 149 146 146 152 161 161 159 154 146 144 137 131 118 102 101 96 93 102 116 128 130 121 115 121 158 168 165 187 176 155 150 139 132
168 169 170 166 160 157 158 157 153 151 148 146 150 158 153 143 143 141 136 125 117 117 108 98 85 75 74 75 102 115 120 113 91 64 59 73 104 127 145 150 152 144 138
174 174 168 165 163 163 161 156 154 154 149 150 154 148 137 133 133 132 126 117 110 102 94 93 92 79 64 68 100 106 103 99 95 81 62 62 65 78 85 100 119 134 144
174 174 173 170 168 165 159 155 154 149 146 147 146 143 138 136 140 136 121 119 118 111 104 98 98 94 70 79 88 93 98 88 79 74 68 69 65 71 80 77 77 84 114
173 172 169 163 158 151 145 143 141 142 143 143 144 142 138 137 132 127 126 121 116 115 113 109 105 95 73 76 84 89 83 79 69 65 73 87 72 74 93 91 76 63 57
171 164 160 153 148 148 146 138 138 141 143 149 152 150 145 142 138 137 138 132 121 113 108 107 104 98 77 76 94 101 94 86 71 62 63 81 85 89 99 99 94 78 60
148 145 140 135 142 146 141 137 143 147 154 158 154 150 148 146 147 145 139 133 126 126 122 109 107 110 101 95 110 111 110 102 87 64 54 64 88 100 104 111 114 107 95
134 138 138 140 147 144 138 139 145 155 154 144 140 141 143 142 142 138 135 136 133 126 120 114 101 93 94 107 114 123 121 129 119 99 70 56 92 102 102 105 112 125 119
117 126 129 130 133 138 138 140 148 147 139 137 135 136 139 142 142 139 139 137 137 133 130 122 102 73 66 82 103 115 118 126 125 125 114 97 105 104 102 98 109 110 101
113 116 122 121 121 132 138 141 145 139 136 134 135 135 132 128 138 144 145 139 138 141 143 142 142 126 85 80 97 110 120 122 116 124 125 112 102 96 94 98 105 101 96
111 118 122 124 126 126 126 134 140 140 136 137 139 139 133 128 121 123 135 143 153 158 159 159 158 150 135 131 118 112 114 111 106 109 110 101 90 81 80 83 79 95 128
108 122 127 131 132 128 125 128 134 136 136 140 141 139 133 132 119 103 88 127 141 178 177 179 172 170 180 194 172 155 149 148 142 121 94 83 85 77 65 60 60 76 105
114 115 115 120 123 121 118 126 140 141 141 143 145 146 141 137 135 130 98 54 68 77 119 163 160 168 165 158 159 157 149 143 139 122 129 145 151 157 153 136 109 91 135